Regional Weather Roundup
Issued by NWS Kansas City/Pleasant Hill, MO

Home | Current Version | Previous Version | Text Only | Print | Product List | Glossary On
Versions: 1 2 3 4 5 6 7 8 9 10 11 12 13 14 15 16 17 18 19 20 21 22 23 24 25 26 27 28 29 30 31 32 33 34 35 36 37 38 39 40 41 42 43 44 45 46 47 48 49 50
000
ASUS43 KEAX 281410
RWREAX

WEATHER ROUNDUP FOR EASTERN KANSAS AND NORTHWEST MISSOURI
NATIONAL WEATHER SERVICE KANSAS CITY/PLEASANT HILL MO
900 AM CDT FRI APR 28 2017

KSZ040-057-103>105-MOZ028-029-037-043-281500-
...KANSAS CITY METROPOLITAN AREA...

CITY           SKY/WX    TMP DP  RH WIND       PRES   REMARKS
K.C. INTL      CLOUDY    52  51  97 E15       29.67R
K.C. DOWNTOWN  CLOUDY    54  52  93 E8        29.66S
LEES SUMMIT    CLOUDY    53  53 100 E8        29.68F
OLATHE - IXD   CLOUDY    53  52  96 E12       29.66R
OLATHE - OJC   CLOUDY    52  52 100 SE7       29.66S
LAWRENCE       CLOUDY    54  53  97 E8        29.66R

$$

MOZ001>008-011>017-020>025-030>033-038>040-044>046-053-054-281500-
...NORTHERN AND CENTRAL MISSOURI...

CITY           SKY/WX    TMP DP  RH WIND       PRES   REMARKS
ST. JOSEPH     LGT RAIN  48  48 100 E8        29.69R
MOSBY          DRIZZLE   52  52 100 E7        29.69S
WHITEMAN AFB   LGT RAIN  54  54 100 E8        29.69S
CLINTON        LGT RAIN  55  55 100 CALM      29.72R
SEDALIA        LGT RAIN  55  55 100 SE7       29.73R
WARSAW         NOT AVBL
CHILLICOTHE      N/A     50  49  96 NE8       29.75F
KIRKSVILLE     CLOUDY    46  44  93 E13       29.78F

$$

MOZ041-047>049-056>058-063>065-088>090-097-281500-
...EASTERN AND SOUTHERN MISSOURI...

CITY           SKY/WX    TMP DP  RH WIND       PRES   REMARKS
ST. LOUIS INTL RAIN      56  51  84 SE10      29.86R
SPIRIT OF STL  RAIN      55  54  96 E5        29.84R FOG
COLUMBIA       RAIN      53  53 100 SE10      29.76F FOG
JEFFERSON CITY LGT RAIN  57  52  83 E13       29.76F
ROLLA          LGT RAIN  55  53  93 SE15G25   29.79R
OSAGE BEACH    LGT RAIN  56  54  93 S9        29.75F
SPRINGFIELD    CLOUDY    56  54  93 SE9       29.71F
BRANSON        CLOUDY    54  54 100 E10       29.73F
JOPLIN         LGT RAIN  58  55  90 SE8       29.66S
WEST PLAINS    CLOUDY    56  52  86 E6        29.82S

$$

IAZ060-094-KSZ022-034>040-054-083-096-NEZ052-066-093-281500-
...KANSAS...SOUTHEAST NEBRASKA AND IOWA...

CITY           SKY/WX    TMP DP  RH WIND       PRES   REMARKS
TOPEKA         CLOUDY    53  53 100 E7        29.65R
MANHATTAN      CLOUDY    52  52 100 E3        29.63R
EMPORIA        CLOUDY    54  53  97 CALM      29.63R
CHANUTE        LGT RAIN  58  55  90 SE22G28   29.61F
WICHITA        CLOUDY    55  52  89 NW5       29.64R
OMAHA          LGT RAIN  38  33  82 NE21      29.81S WCI  28
LINCOLN        LGT RAIN  40  38  93 NE16      29.76R FOG     WCI  31
FALLS CITY     LGT RAIN  44  42  93 E14       29.69R FOG
LAMONI         LGT RAIN  41  38  89 NE15      29.78R WCI  33
DES MOINES     LGT RAIN  40  28  62 NE15      29.88R WCI  32

$$




USA.gov is the U.S. government's official web portal to all federal, state and local government web resources and services.